Regional Weather Roundup
Issued by NWS Wakefield, VA

Home | Current Version | Previous Version | Text Only | Print | Product List | Glossary Off
Versions: 1 2 3 4 5 6 7 8 9 10 11 12 13 14 15 16 17 18 19 20 21 22 23 24 25 26 27

000
ASUS41 KAKQ 240215
RWRAKQ

REGIONAL WEATHER ROUNDUP
NATIONAL WEATHER SERVICE WAKEFIELD VA
1000 PM EDT SAT SEP 23 2017

Note: "fair" indicates few or no clouds below 12,000 feet with no
significant weather and/or obstructions to visibility. * = Denotes
station may not report precipitation (e.g., rain,snow,etc.),
thunder or fog.

VAZ042-051-052>054-056-240300-
NORTHERN VIRGINIA

CITY           SKY/WX    TMP DP  RH WIND       PRES   REMARKS
WASH NATIONAL  CLEAR     74  65  73 N6        30.08S
DULLES         CLEAR     66  63  90 CALM      30.09R
FORT BELVOIR   CLEAR     65  62  90 CALM      30.07S
QUANTICO       CLEAR     71  66  84 NW6       30.08S
FREDERICKSBRG* CLEAR     68  67  96 CALM      30.07S
STAFFORD*      CLEAR     64  64 100 CALM      30.12S FOG
WARRENTON      CLEAR     60  56  86 CALM      30.09R
CULPEPER*      CLEAR     67  63  84 CALM      30.10S
MANASSAS*      CLEAR     63  61  93 CALM      30.09R
LEESBURG*      CLEAR     68  66  94 CALM      30.10S
WINCHESTER     CLEAR     64  57  77 CALM      30.11S
FRONT ROYAL*   CLEAR     64  57  77 CALM      30.10F
LURAY*         CLEAR     63  54  72 CALM      30.13R
$$

VAZ048-049-060>072-079>083-240300-
CENTRAL AND SOUTH CENTRAL VIRGINIA

CITY           SKY/WX    TMP DP  RH WIND       PRES   REMARKS
RICHMOND       CLEAR     71  66  84 CALM      30.08R
CHESTERFIELD*  NOT AVBL
PETERSBURG*    CLEAR     65  65 100 CALM      30.08S
HANOVER        CLEAR     68  65  90 CALM      30.09S
TAPPAHANNOCK*  CLEAR    N/A N/A N/A CALM      30.08S
QUINTON*       FAIR      69  69 100 W5        30.08R
CHARLOTTSVILLE CLEAR     68  62  81 CALM      30.11R
GORDONSVILLE*  CLEAR     62  61  96 CALM      30.10R
ORANGE*        CLEAR     61  59  94 CALM      30.10S
LOUISA*        CLEAR     61  59  94 CALM      30.09S
BUMPASS*       FAIR      65  65 100 W8        30.09S
FARMVILLE*     CLEAR     66  66 100 CALM      30.08S
CREWE*         FAIR      65  65 100 CALM      30.08S
FORT PICKETT*  FAIR      69  69  98 NE5       30.09R
CHASE CITY*    FAIR      68  65  89 CALM      30.09S
CLARKSVILLE*   FAIR      66  63  88 CALM      30.08S
SOUTH HILL*    PTCLDY    65  64  98 CALM      30.14S
LAWRENCEVILLE* FAIR      69  65  87 CALM      30.08R
EMPORIA*       PTCLDY    66  64  94 CALM      30.09R
$$

VAZ088>098-240300-
SOUTHEAST VIRGINIA

CITY           SKY/WX    TMP DP  RH WIND       PRES   REMARKS
NORFOLK        PTCLDY    73  69  87 SE3       30.07R
VIRGINIA BEACH PTCLDY    71  66  84 SE3       30.06R
NORFOLK NAVAL  PTCLDY    73  67  81 CALM      30.08R
WEST POINT*    CLEAR     66  64  94 CALM      30.08S
SALUDA*        FAIR      68  68  99 CALM      30.06S
NEWPORT NEWS   CLEAR     69  67  93 CALM      30.07S
LANGLEY AFB    CLEAR     73  69  87 SE3       30.07R
FORT EUSTIS    CLEAR     71  68  90 CALM      30.05R
WILLIAMSBURG*  PTCLDY    72  72 100 CALM      30.08R
HR EXEC AP*    FAIR      65  64  97 CALM      30.08R
FRANKLIN*      PTCLDY    68  66  95 CALM      30.08R
US460-WAKEFLD  CLEAR     69  68  96 CALM      30.07R
$$

VAZ020-022-025-037-045-240300-
WEST CENTRAL AND SOUTHWEST VIRGINIA

CITY           SKY/WX    TMP DP  RH WIND       PRES   REMARKS
STAUNTON*      CLEAR     60  56  85 CALM      30.16R
WAYNESBORO*    CLEAR     63  60  89 SW3       30.15R
HOT SPRINGS VA CLEAR     67  42  40 CALM      30.26S
LYNCHBURG      CLEAR     65  58  78 CALM      30.12R
DANVILLE       PTCLDY    64  62  93 CALM      30.09S
SOUTH BOSTON*  FAIR      66  60  83 CALM      30.09S
MARTINSVILLE   CLEAR     62  60  94 CALM      30.14S
ROANOKE        CLEAR     69  59  70 CALM      30.15R
BLACKSBURG     CLEAR     66  55  66 CALM      30.20S
DUBLIN*        CLEAR     63  56  80 NW3       30.18S
MARION*        CLEAR     63  53  69 CALM      30.21S
HILLSVILLE*    CLEAR     64  52  65 CALM      30.18F
RICHLANDS*     FAIR      72  50  45 E5        30.18R
WISE*          CLEAR     70  61  73 CALM      30.18S
ABINGDON*      CLEAR     70  57  62 E7        30.15R
$$

MDZ021>025-VAZ099-100-240300-
SOUTHERN MARYLAND AND THE DELMARVA PENINSULA

CITY           SKY/WX    TMP DP  RH WIND       PRES   REMARKS
PATUXENT RIVER CLEAR     65  64  97 W5        30.06S
BAY BRIDGE APT NOT AVBL
LEONARDTOWN    CLEAR     68  64  88 CALM      30.09S
DOVER          CLEAR     72  66  81 W3        30.06R
GEORGETOWN       N/A     70  67  90 SW3       30.06S
EASTON         NOT AVBL
CAMBRIDGE      CLEAR     68  64  88 CALM      30.06S
SALISBURY      CLEAR     70  68  93 CALM      30.06S
OCEAN CITY     CLEAR     66  66 100 CALM      30.06F
WALLOPS ISLAND CLEAR     69  68  96 CALM      30.07R
ACCOMACK*      PTCLDY    69  67  96 CALM      30.07S
$$

NCZ012>017-030>032-240300-
NORTH CENTRAL AND EASTERN NORTH CAROLINA

CITY           SKY/WX    TMP DP  RH WIND       PRES   REMARKS
ROANOKE RAPIDS FAIR      66  66 100 CALM      30.07S
RALEIGH        MOCLDY    72  63  73 CALM      30.07S
ELIZABETH CITY CLEAR     72  69  90 E6        30.06F
AHOSKIE*       PTCLDY    68  67  98 CALM      30.07S
EDENTON*       CLEAR     73  69  88 CALM      30.07S
CURRITUCK*     NOT AVBL
KILL DEVIL HLS CLEAR     70  64  83 CALM      30.05F
MANTEO         CLEAR     71  66  84 NE7       30.06F
CAPE HATTERAS  CLEAR     73  68  84 NE9       30.03F
TARBORO*       NOT AVBL
GOLDSBORO      MOCLDY    72  71  99 CALM      30.03F
WASHINGTON     PTCLDY    73  68  86 E5        30.06S
GREENVILLE     PTCLDY    73  68  83 E3        30.07F
NEW BERN       PTCLDY    74  70  87 E3        30.05F
WILMINGTON     PTCLDY    72  69  90 NE3       30.02F
$$

VAZ048-240300-
ELSEWHERE

CITY           SKY/WX    TMP DP  RH WIND       PRES   REMARKS
HARRISBURG PA  CLEAR     70  64  81 CALM      30.08S
BALTIMORE      CLEAR     65  62  90 SW3       30.07S
ANNAPOLIS      CLEAR     74  72  93 CALM      30.07R
ANDREWS AFB    CLEAR     65  62  90 CALM      30.07S
PHILADELPHIA   CLEAR     77  59  53 CALM      30.05S
HENDERSON NC   MOCLDY    65  59  78 CALM      30.09R
GREENSBORO     PTCLDY    73  62  68 NE3       30.09S
ROCKY MOUNT    PTCLDY    68  66  93 CALM      30.06S
$$

VAZ100-240300-
MARINE

STATION/POSITION TIME  TEMP    WIND        PRES    WAVE   SWELL
                       AIR SEA DIR/SP/G            HT/PER HT/PER
                 (UTC) (F)     (DEG/KT/KT) (MB)    (FT/S) (FT/S)
BRANDYWINE LGT   0148           CALM  /  4   N/A
CAPE MAY NJ      0148   72 75  200/  3/  4 1017.1R
LEWES DE         0148          200/  4/  5   N/A
15NM E FENWICK I 0150   73 72  170/  4/  6 1017.9F   5/ 8   5/ 8
OCEAN-CITY-INLET 0148   72 74  250/  2/  3 1018.2F
WACHAPREAGUE VA  0148   74 78  170/  2/  4 1018.1S
THOMAS POINT MD  0200   75 76  290/  4/  5   N/A
GOOSES REEF MD   0200   76 75  330/  4/  4 1018.5    0
COVE POINT MD    0148   77     340/  5/  5 1018.6F
SOLOMONS ISLAND  0148          320/  3/  4   N/A
BISHOPS HEAD MD  0148   76 78   50/  5/  6 1018.2R
PINEY POINT MD   0148           40/  2/  2   N/A
POTOMAC MD       0200   77 76  320/  4/  6 1017.4    0
CAMBRIDGE MD     0148   72 77              1018.8S
LEWISETTA VA     0148   74 78  290/  2/  3 1018.0R
RAPPAHANNOCK LGT 0148          160/  5/  5 1018.6S
STINGRAY PT      0200   75 76  200/  6/  6 1018.3    1
YORK RVR RNG VA  0148   75     180/  5/  6 1018.6R
YORKTOWN VA      0148   74 77  160/  3/  4 1017.9R
JAMESTOWN VA     0200      79  100/  2/  4   N/A     0
DOMINION TERM VA 0148   75     110/  6/  8 1018.4R
KIPTOPEKE VA     0148          150/  2/  2   N/A
CHES BAY BRIDGE  0148   74 76  140/  5/  8 1018.2R
CAPE HENRY VA    0148   73     140/  5/  6   N/A
WILLOUBY STN VA  0148          140/  7/  8   N/A
S CRANEY ISL VA  0148   74     130/  4/  5 1018.1R
CAPE HENRY BUOY  0200      75                N/A     5/13   3/13
1ST LANDING BUOY 0200   74 76              1018.2    2/ 4
64NM E OF VA BCH 0150   70 70   30/  6/  6 1018.5R   9/12  10/12
DUCK PIER NC     0148   73 77   50/  8/  9 1017.6F
44100 DUCK FRF   0105      75                N/A     5/ 9   2/13
44056 DUCK FRF   0200      76                N/A     5/13   3/13
OREGON INLET NC  0142   72 78   20/  9/ 13 1017.4F
HATTERAS NC      0148           40/  8/ 13   N/A
DIAMOND SHLS NC  0150   73 75   30/ 16/ 19 1016.5F   8/15   7/15
CAPE LOOKOUT NC  0200   76      50/ 16/ 17 1016.7F
$$




USA.gov is the U.S. government's official web portal to all federal, state and local government web resources and services.